Date String (YYYY-MM-DD hh:mm:ss) UTC,Instrument flags,absolute air pressure of the measurement (hPa),sample flow rate (lpm),inlet stack bypass flow (lpm),air temperature of the measurement (°C),ambient temperature measured by the external sensor (°C),aerosol sample conditioner tube jacket temperature (°C),OPC LED temperature (°C),internal box temperature (°C),relative humidity of the measurement (%),span deviation,mass concentration of particles derived from Lorenz-Mie calculation of OPC scattering (μg/m³),mass concentration of particles derived from Lorenz-Mie calculation of OPC scattering (μg/m³),mass concentration of particles derived from Lorenz-Mie calculation of OPC scattering (μg/m³)
DateTimeUTC,F1_M11,P_M11,Q1_M11,Q2_M11,T1_M11,T2_M11,T3_M11,T4_M11,T5_M11,U1_M11,ZSPAN_M11,X0_M11,X2_M11,X1_M11
2024-04-15 23:00:00,SystemResetWarning,0814.7,5.00,000.00,025.3,024.8,000.0,033.3,027.2,013.2,0000.0,0035.16,0004.79,0001.87
2024-04-15 23:01:00,SystemResetWarning,0814.5,5.00,000.00,025.3,023.9,000.0,033.4,026.7,013.4,0000.0,0031.03,0004.63,0001.88
2024-04-15 23:02:00,SystemResetWarning,0814.6,5.00,000.00,024.9,021.7,000.0,033.4,025.5,013.8,0000.0,0028.60,0004.47,0001.86
2024-04-15 23:03:00,SystemResetWarning,0814.6,5.01,000.00,024.6,021.6,000.0,033.4,025.3,014.3,0000.0,0026.19,0004.48,0001.86
2024-04-15 23:04:00,SystemResetWarning,0814.7,5.00,000.00,024.5,021.9,000.0,033.2,025.5,014.4,0000.0,0025.08,0004.51,0001.86
2024-04-15 23:05:00,SystemResetWarning,0814.7,5.00,000.00,024.5,022.3,000.0,033.1,025.8,014.6,0000.0,0023.79,0004.44,0001.86
2024-04-15 23:06:00,SystemResetWarning,0814.8,5.00,000.00,024.5,022.7,000.0,033.1,026.0,014.7,0000.0,0022.29,0004.36,0001.86
2024-04-15 23:07:00,SystemResetWarning,0814.7,5.00,000.00,024.6,023.0,000.0,033.0,026.2,014.7,0000.0,0020.30,0004.27,0001.86
2024-04-15 23:08:00,SystemResetWarning,0814.7,5.00,000.00,024.6,023.3,000.0,033.0,026.4,014.8,0000.0,0019.85,0004.25,0001.87
2024-04-15 23:09:00,SystemResetWarning,0814.8,4.99,000.00,024.7,023.5,000.0,033.0,026.5,014.9,0000.0,0020.02,0004.28,0001.88
2024-04-15 23:10:00,SystemResetWarning,0814.8,4.99,000.00,024.7,023.7,000.0,033.0,026.6,014.9,0000.0,0019.42,0004.27,0001.89
2024-04-15 23:11:00,SystemResetWarning,0814.7,5.00,000.00,024.8,023.9,000.0,033.0,026.6,015.0,0000.0,0018.04,0004.21,0001.88
2024-04-15 23:12:00,SystemResetWarning,0814.8,4.99,000.00,024.8,024.0,000.0,033.0,026.7,015.1,0000.0,0017.37,0004.10,0001.86
2024-04-15 23:13:00,SystemResetWarning,0814.9,5.00,000.00,024.9,024.1,000.0,033.1,026.7,015.1,0000.0,0017.25,0004.05,0001.86
2024-04-15 23:14:00,SystemResetWarning,0814.8,5.00,000.00,025.0,024.2,000.0,033.1,026.8,015.1,0000.0,0017.07,0003.94,0001.84
2024-04-15 23:15:00,SystemResetWarning,0814.7,5.00,000.00,025.0,024.3,000.0,033.1,026.8,015.1,0000.0,0016.64,0003.83,0001.83
2024-04-15 23:16:00,SystemResetWarning,0814.8,5.00,000.00,025.0,024.4,000.0,033.1,026.9,015.1,0000.0,0014.95,0003.82,0001.83
2024-04-15 23:17:00,SystemResetWarning,0814.8,5.00,000.00,025.1,024.4,000.0,033.2,026.9,015.1,0000.0,0014.53,0003.77,0001.82
2024-04-15 23:18:00,SystemResetWarning,0814.8,5.01,000.00,025.1,024.5,000.0,033.2,026.9,014.9,0000.0,0014.97,0003.73,0001.81
2024-04-15 23:19:00,SystemResetWarning,0814.8,5.00,000.00,025.1,024.5,000.0,033.2,027.0,014.9,0000.0,0014.97,0003.71,0001.81
2024-04-15 23:20:00,SystemResetWarning,0814.9,5.00,000.00,025.2,024.5,000.0,033.3,027.0,015.0,0000.0,0013.89,0003.63,0001.80
2024-04-15 23:21:00,SystemResetWarning,0814.9,5.00,000.00,025.2,024.6,000.0,033.3,027.0,015.0,0000.0,0013.75,0003.62,0001.78
2024-04-15 23:22:00,SystemResetWarning,0814.9,5.00,000.00,025.3,024.6,000.0,033.3,027.1,015.0,0000.0,0013.52,0003.56,0001.75
2024-04-15 23:23:00,SystemResetWarning,0814.9,5.00,000.00,025.3,024.6,000.0,033.3,027.1,015.0,0000.0,0013.55,0003.52,0001.72
2024-04-15 23:24:00,SystemResetWarning,0814.8,5.00,000.00,025.3,024.7,000.0,033.4,027.1,014.7,0000.0,0012.46,0003.56,0001.70
2024-04-15 23:25:00,SystemResetWarning,0814.8,5.00,000.00,025.3,024.7,000.0,033.4,027.1,014.7,0000.0,0012.64,0003.61,0001.70
2024-04-15 23:26:00,SystemResetWarning,0814.9,5.00,000.00,025.4,024.7,000.0,033.4,027.1,014.6,0000.0,0012.17,0003.61,0001.70
2024-04-15 23:27:00,SystemResetWarning,0814.8,5.00,000.00,025.4,024.7,000.0,033.4,027.2,014.6,0000.0,0012.34,0003.61,0001.69
2024-04-15 23:28:00,SystemResetWarning,0814.8,5.00,000.00,025.4,024.8,000.0,033.5,027.2,014.5,0000.0,0011.67,0003.54,0001.66
2024-04-15 23:29:00,SystemResetWarning,0814.8,5.00,000.00,025.5,024.8,000.0,033.5,027.2,014.4,0000.0,0011.65,0003.53,0001.65
2024-04-15 23:30:00,SystemResetWarning,0814.8,5.00,000.00,025.5,024.8,000.0,033.5,027.2,014.5,0000.0,0011.72,0003.48,0001.60
2024-04-15 23:31:00,SystemResetWarning,0814.7,5.00,000.00,025.5,024.8,000.0,033.5,027.2,014.5,0000.0,0012.04,0003.44,0001.57
2024-04-15 23:32:00,SystemResetWarning,0814.8,5.00,000.00,025.5,024.8,000.0,033.5,027.2,014.5,0000.0,0012.37,0003.38,0001.54
2024-04-15 23:33:00,SystemResetWarning,0814.7,5.00,000.00,025.5,024.8,000.0,033.6,027.3,014.4,0000.0,0013.48,0003.37,0001.52
2024-04-15 23:34:00,SystemResetWarning,0814.6,5.00,000.00,025.5,024.9,000.0,033.6,027.3,014.4,0000.0,0014.17,0003.41,0001.52
2024-04-15 23:35:00,SystemResetWarning,0814.6,5.00,000.00,025.6,024.9,000.0,033.6,027.3,014.5,0000.0,0014.63,0003.45,0001.53
2024-04-15 23:36:00,SystemResetWarning,0814.5,4.99,000.00,025.6,024.9,000.0,033.7,027.3,014.5,0000.0,0015.74,0003.48,0001.52
2024-04-15 23:37:00,SystemResetWarning,0814.5,5.00,000.00,025.6,024.9,000.0,033.7,027.3,014.5,0000.0,0020.23,0003.64,0001.53
2024-04-15 23:38:00,SystemResetWarning,0814.6,5.00,000.00,025.6,024.9,000.0,033.7,027.3,014.5,0000.0,0021.58,0003.71,0001.51
2024-04-15 23:39:00,SystemResetWarning,0814.5,5.00,000.00,025.6,024.9,000.0,033.7,027.3,014.4,0000.0,0022.55,0003.77,0001.49
2024-04-15 23:40:00,SystemResetWarning,0814.4,5.00,000.00,025.6,024.9,000.0,033.7,027.3,014.4,0000.0,0022.76,0003.77,0001.48
2024-04-15 23:41:00,SystemResetWarning,0814.6,5.00,000.00,025.6,024.9,000.0,033.8,027.3,014.5,0000.0,0022.28,0003.84,0001.48
2024-04-15 23:42:00,SystemResetWarning,0814.4,4.99,000.00,025.6,024.9,000.0,033.8,027.3,014.4,0000.0,0023.23,0003.96,0001.49
2024-04-15 23:43:00,SystemResetWarning,0814.4,4.99,000.00,025.6,024.9,000.0,033.8,027.3,014.3,0000.0,0023.34,0004.01,0001.50
2024-04-15 23:44:00,SystemResetWarning,0814.4,5.01,000.00,025.6,024.9,000.0,033.8,027.3,014.4,0000.0,0023.42,0003.99,0001.48
2024-04-15 23:45:00,SystemResetWarning,0814.3,5.01,000.00,025.6,024.9,000.0,033.8,027.3,014.3,0000.0,0022.91,0003.97,0001.45
2024-04-15 23:46:00,SystemResetWarning,0814.4,5.01,000.00,025.7,024.9,000.0,033.8,027.3,013.9,0000.0,0022.96,0003.97,0001.43
2024-04-15 23:47:00,SystemResetWarning,0814.6,4.99,000.00,025.7,024.8,000.0,033.8,027.3,014.0,0000.0,0023.48,0004.03,0001.40
2024-04-15 23:48:00,SystemResetWarning,0814.6,5.00,000.00,025.7,024.8,000.0,033.8,027.3,014.2,0000.0,0019.16,0003.83,0001.35
2024-04-15 23:49:00,SystemResetWarning,0814.5,5.00,000.00,025.7,024.8,000.0,033.8,027.3,014.1,0000.0,0018.44,0003.71,0001.32
2024-04-15 23:50:00,SystemResetWarning,0814.6,5.00,000.00,025.7,024.8,000.0,033.8,027.3,014.0,0000.0,0017.37,0003.60,0001.29
2024-04-15 23:51:00,SystemResetWarning,0814.5,5.00,000.00,025.7,024.8,000.0,033.9,027.3,013.7,0000.0,0016.58,0003.55,0001.26
2024-04-15 23:52:00,SystemResetWarning,0814.6,5.00,000.00,025.7,024.8,000.0,033.9,027.3,013.9,0000.0,0015.81,0003.42,0001.22
2024-04-15 23:53:00,SystemResetWarning,0814.7,5.00,000.00,025.7,024.8,000.0,033.9,027.3,013.9,0000.0,0014.35,0003.22,0001.16
2024-04-15 23:54:00,SystemResetWarning,0814.7,5.00,000.00,025.7,024.8,000.0,033.9,027.3,013.8,0000.0,0013.63,0003.11,0001.12
2024-04-15 23:55:00,SystemResetWarning,0815.0,5.00,000.00,025.7,024.8,000.0,033.9,027.3,013.9,0000.0,0012.55,0002.98,0001.09
2024-04-15 23:56:00,SystemResetWarning,0815.1,5.00,000.00,025.7,024.8,000.0,033.9,027.3,013.9,0000.0,0012.67,0002.81,0001.04
2024-04-15 23:57:00,SystemResetWarning,0815.1,5.00,000.00,025.7,024.8,000.0,033.9,027.4,014.1,0000.0,0012.08,0002.59,0001.01
2024-04-15 23:58:00,SystemResetWarning,0815.1,5.00,000.00,025.7,024.8,000.0,033.9,027.4,014.2,0000.0,0009.98,0002.17,0000.96
2024-04-15 23:59:00,SystemResetWarning,0815.1,5.00,000.00,025.7,024.8,000.0,033.9,027.4,014.1,0000.0,0009.47,0002.03,0000.93
